CZ-6A DEB, 61474

Orbit data source: Space-Track

CZ-6A DEB, 61474 is space debris in LEO originally from a launch on Tue, 06 Aug 2024 UTC launched from the Taiyaun Space Center, China (TSC). Debris objects in space refer to the collection of defunct objects orbiting the Earth. Examples of debris include non-operational satellites, rocket bodies, and fragments generated from explosions, collisions, or faulty payload assembly.

Loading next visibility...
Identifier
61474, 2024-140AAG
Orbit
LEO
Country
Flag of CNCN / PRC
Related business
Manufacturer
SAST
Mission
Spacecraft
Bus & Motor
Unknown
Mass
Unknown
Launch date (UTC)
2024-08-06 (2 years ago)
Launch vehicle
Unknown
Launch site
Taiyaun Space Center, China (TSC)
Object type
Payload
Rocket body
Debris
Shape & HBR
Unknown shape, 0.1 m
Radar Cross Section
Small (<0.1 m²)

Expand to show TLE details & history
Last TLE update: 9 hours ago

TLE from 9 hours ago
0 CZ-6A DEB
1 61474U 24140AAG 26171.48271344  .00001441  00000-0  33919-3 0  9991
2 61474  88.8209 255.7432 0118947 317.5396  41.6654 14.49588796 94595
Epoch: 2026-06-20T11:35Z
TLE epoch observation values (Epoch: 2026-06-20T11:35:06.441Z)
Latitude
0.00005°
Longitude
173.26967°
Altitude
667.389 km
Speed
7.556 km/s
True Right ascension
17h 02m 58s
True Declination
0° 00' 00"
Sunlit
Object was in full shadow at epoch
Visualization orbit readout
Latitude
Unknown
Longitude
Unknown
Altitude
Unknown
Speed
Unknown
Apparent Right ascension
Unknown
Apparent Declination
Unknown
Sunlit
N/A
Visualization observer readout
Local Sidereal Time
07:20:41
Azimuth
Unknown
Elevation
Unknown
Doppler factor
Unknown
Orbital elements
Apogee altitude
808.378 km
Perigee altitude
639.425 km
Semi-major axis
7,102.038 km
Eccentricity
0.01189
Inclination
88.8209°
RAAN
255.7432°
Arg. of periapsis
317.5396°
True anomaly
42.58165°
Mean anomaly
41.6654°
Eccentric anomaly
42.12251°
Mean motion
3.62634 °/min
Orbital period
99.27 mins
BSTAR
0.00033919
Loading maneuver chart data...
Computing Atmospheric mass density...
Loading historical data...
Loading historical data...
Loading historical data...
Loading historical data...
Loading historical data...
Loading historical data...
Loading historical data...

Documentation

Showing up to 5 results
|